Terminal Aerodrome Forecast
Issued by NWS

Home | Current Version | Previous Version | Text Only | Print | Product List | Glossary On
Versions: 1 2 3 4 5 6 7 8 9 10 11 12 13 14 15 16
000
FTUS43 KDLH 231700
TAFBRD
TAF
KBRD 231730Z 2318/2418 14012G22KT P6SM OVC080
     FM232100 13014G25KT P6SM -RA SCT030 OVC050
     FM240100 13013KT 5SM -RA BR OVC025
     FM240400 12011KT P6SM -RA SCT007 OVC015
     FM241500 13009KT 3SM -RA OVC007=

USA.gov is the U.S. government's official web portal to all federal, state and local government web resources and services.